DW4604 Weather Reports


Display with metric or nautical units.
time (UTC)temp
F
wind
direction
speed
MPH
gust
MPH
rain 1hr
in
rain 24hr
in
rain mn
in
humidity
%
barometer
mb
20260902140453 74 0 0.0 0.0 0.00 0.00 0.00 61 1018.4
20260902135953 73 0 0.0 0.0 0.00 0.00 0.00 62 1018.4
20260902135453 74 0 0.0 0.0 0.00 0.00 0.00 62 1018.5
20260902134952 74 0 0.0 0.0 0.00 0.00 0.00 62 1018.5
20260902134453 76 0 0.0 0.0 0.00 0.00 0.00 58 1018.6
20260902133953 76 0 0.0 0.0 0.00 0.00 0.00 60 1018.5
20260902133453 76 0 0.0 0.0 0.00 0.00 0.00 61 1018.5
20260902132953 76 0 0.0 0.0 0.00 0.00 0.00 60 1018.5
20260902132453 75 0 0.0 0.0 0.00 0.00 0.00 61 1018.6
20260902131953 75 0 0.0 0.0 0.00 0.00 0.00 64 1018.6
20260902131453 76 0 0.0 0.0 0.00 0.00 0.00 59 1018.6
20260902130953 76 0 0.0 0.0 0.00 0.00 0.00 60 1018.7
20260902130453 77 0 0.0 0.0 0.00 0.00 0.00 60 1018.6
20260902125452 75 0 0.0 0.0 0.00 0.00 0.00 62 1018.8
20260902124952 75 0 0.0 0.0 0.00 0.00 0.00 63 1018.7
20260902124453 76 0 0.0 0.0 0.00 0.00 0.00 62 1018.8
20260902122952 72 0 0.0 0.0 0.00 0.00 0.00 67 1019.0
20260902121953 76 0 0.0 0.0 0.00 0.00 0.00 63 1019.0
20260902121453 76 0 0.0 0.0 0.00 0.00 0.00 64 1019.0
20260902120954 76 0 0.0 0.0 0.00 0.00 0.00 59 1019.0
20260902120453 76 0 0.0 0.0 0.00 0.00 0.00 63 1019.0
20260902114953 76 0 0.0 0.0 0.00 0.00 0.00 62 1019.1
20260902114453 75 0 0.0 0.0 0.00 0.00 0.00 62 1019.2
20260902113953 74 0 0.0 0.0 0.00 0.00 0.00 64 1019.2
20260902113453 72 0 0.0 0.0 0.00 0.00 0.00 69 1019.2
20260902112954 72 0 0.0 0.0 0.00 0.00 0.00 65 1019.2
20260902112453 74 0 0.0 0.0 0.00 0.00 0.00 64 1019.2
20260902110953 74 0 0.0 0.0 0.00 0.00 0.00 62 1019.3
20260902110453 75 0 0.0 0.0 0.00 0.00 0.00 61 1019.4
20260902105953 75 0 0.0 0.0 0.00 0.00 0.00 66 1019.4
20260902105454 73 0 0.0 0.0 0.00 0.00 0.00 68 1019.4
20260902104954 72 0 0.0 0.0 0.00 0.00 0.00 68 1019.5
20260902104454 71 0 0.0 0.0 0.00 0.00 0.00 72 1019.6
20260902103954 71 0 0.0 0.0 0.00 0.00 0.00 70 1019.6
20260902103454 71 0 0.0 0.0 0.00 0.00 0.00 69 1019.6
20260902102953 72 0 0.0 0.0 0.00 0.00 0.00 69 1019.7
20260902102453 72 0 0.0 0.0 0.00 0.00 0.00 68 1019.6
20260902101954 73 0 0.0 0.0 0.00 0.00 0.00 65 1019.6
20260902101454 74 0 0.0 0.0 0.00 0.00 0.00 64 1019.7
20260902100954 74 0 0.0 0.0 0.00 0.00 0.00 63 1019.7
20260902100454 75 0 0.0 0.0 0.00 0.00 0.00 64 1019.7
20260902095954 73 0 0.0 0.0 0.00 0.00 0.00 67 1019.8
20260902095454 72 0 0.0 0.0 0.00 0.00 0.00 67 1019.8
20260902094954 71 0 0.0 0.0 0.00 0.00 0.00 69 1019.8
20260902093954 72 0 0.0 0.0 0.00 0.00 0.00 66 1019.8
20260902093454 73 0 0.0 0.0 0.00 0.00 0.00 65 1020.0
20260902092954 72 0 0.0 0.0 0.00 0.00 0.00 66 1019.9
20260902092454 72 0 0.0 0.0 0.00 0.00 0.00 65 1020.0
20260902091954 71 0 0.0 0.0 0.00 0.00 0.00 66 1019.9
20260902091453 71 0 0.0 0.0 0.00 0.00 0.00 67 1019.9
20260902090953 71 0 0.0 0.0 0.00 0.00 0.00 67 1020.0
20260902090454 70 0 0.0 0.0 0.00 0.00 0.00 66 1020.0
20260902085954 70 0 0.0 0.0 0.00 0.00 0.00 66 1020.0
20260902085453 71 0 0.0 0.0 0.00 0.00 0.00 65 1019.9
20260902084954 71 0 0.0 0.0 0.00 0.00 0.00 65 1020.0
20260902083954 69 0 0.0 0.0 0.00 0.00 0.00 70 1020.0
20260902083454 70 0 0.0 0.0 0.00 0.00 0.00 64 1020.1
20260902082954 71 0 0.0 0.0 0.00 0.00 0.00 64 1020.1
20260902082454 70 0 0.0 0.0 0.00 0.00 0.00 65 1020.1
20260902081954 70 0 0.0 0.0 0.00 0.00 0.00 65 1020.0
20260902080954 70 0 0.0 0.0 0.00 0.00 0.00 65 1020.1
20260902080456 70 0 0.0 0.0 0.00 0.00 0.00 68 1020.2
20260902075954 69 0 0.0 0.0 0.00 0.00 0.00 71 1020.1
20260902075454 69 0 0.0 0.0 0.00 0.00 0.00 68 1020.1
20260902074954 68 0 0.0 0.0 0.00 0.00 0.00 71 1020.1
20260902073954 67 0 0.0 0.0 0.00 0.00 0.00 74 1020.1
20260902073453 66 0 0.0 0.0 0.00 0.00 0.00 74 1020.1
20260902072954 66 0 0.0 0.0 0.00 0.00 0.00 76 1020.0
20260902072455 65 0 0.0 0.0 0.00 0.00 0.00 76 1020.0
20260902071953 65 0 0.0 0.0 0.00 0.00 0.00 78 1020.0
20260902071454 64 0 0.0 0.0 0.00 0.00 0.00 79 1020.0
20260902065955 63 0 0.0 0.0 0.00 0.00 0.00 82 1019.9
20260902065454 62 0 0.0 0.0 0.00 0.00 0.00 84 1019.9
20260902064954 62 0 0.0 0.0 0.00 0.00 0.00 86 1019.9
20260902064454 60 0 0.0 0.0 0.00 0.00 0.00 89 1019.9
20260902063954 60 0 0.0 0.0 0.00 0.00 0.00 90 1019.9
20260902063454 60 0 0.0 0.0 0.00 0.00 0.00 93 1019.8
20260902062955 58 0 0.0 0.0 0.00 0.00 0.00 94 1019.8
20260902062454 58 0 0.0 0.0 0.00 0.00 0.00 94 1019.8
20260902061954 57 0 0.0 0.0 0.00 0.00 0.00 95 1019.9
20260902061454 57 0 0.0 0.0 0.00 0.00 0.00 95 1019.8
20260902060954 56 0 0.0 0.0 0.00 0.00 0.00 95 1019.8
20260902060454 56 0 0.0 0.0 0.00 0.00 0.00 95 1019.7
20260902055954 55 0 0.0 0.0 0.00 0.00 0.00 95 1019.6
20260902055454 55 0 0.0 0.0 0.00 0.00 0.00 95 1019.6
20260902054954 55 0 0.0 0.0 0.00 0.00 0.00 95 1019.7
20260902054455 55 0 0.0 0.0 0.00 0.00 0.00 95 1019.7
20260902053954 54 0 0.0 0.0 0.00 0.00 0.00 95 1019.7
20260902053454 54 0 0.0 0.0 0.00 0.00 0.00 95 1019.7
20260902052455 53 0 0.0 0.0 0.00 0.00 0.00 95 1019.6
20260902051954 53 0 0.0 0.0 0.00 0.00 0.00 95 1019.6
20260902051454 53 0 0.0 0.0 0.00 0.00 0.00 95 1019.6
20260902050954 52 0 0.0 0.0 0.00 0.00 0.00 95 1019.6
20260902050455 52 0 0.0 0.0 0.00 0.00 0.00 95 1019.6
20260902045955 52 0 0.0 0.0 0.00 0.00 0.00 95 1019.6
20260902045455 51 0 0.0 0.0 0.00 0.00 0.00 95 1019.7
20260902044954 51 0 0.0 0.0 0.00 0.00 0.00 95 1019.6
20260902044455 51 0 0.0 0.0 0.00 0.00 0.00 94 1019.6
20260902043955 51 0 0.0 0.0 0.00 0.00 0.00 95 1019.5
20260902043455 50 0 0.0 0.0 0.00 0.00 0.00 94 1019.5
20260902042955 50 0 0.0 0.0 0.00 0.00 0.00 94 1019.4
20260902042455 50 0 0.0 0.0 0.00 0.00 0.00 94 1019.4
20260902041955 49 0 0.0 0.0 0.00 0.00 0.00 94 1019.5
20260902040955 49 0 0.0 0.0 0.00 0.00 0.00 94 1019.4
20260902040455 49 0 0.0 0.0 0.00 0.00 0.00 94 1019.4
20260902035455 49 0 0.0 0.0 0.00 0.00 0.00 94 1019.4
20260902034954 49 0 0.0 0.0 0.00 0.00 0.00 94 1019.3
20260902034457 50 0 0.0 0.0 0.00 0.00 0.00 94 1019.3
20260902033955 50 0 0.0 0.0 0.00 0.00 0.00 94 1019.3
20260902032956 50 0 0.0 0.0 0.00 0.00 0.00 94 1019.3
20260902032455 50 0 0.0 0.0 0.00 0.00 0.00 94 1019.3
20260902031955 50 0 0.0 0.0 0.00 0.00 0.00 94 1019.2
20260902031455 50 0 0.0 0.0 0.00 0.00 0.00 94 1019.2
20260902030955 50 0 0.0 0.0 0.00 0.00 0.00 94 1019.2
20260902030455 50 0 0.0 0.0 0.00 0.00 0.00 94 1019.3
20260902025955 50 0 0.0 0.0 0.00 0.00 0.00 94 1019.3
20260902024455 50 0 0.0 0.0 0.00 0.00 0.00 94 1019.3
20260902023955 50 0 0.0 0.0 0.00 0.00 0.00 94 1019.3
20260902023455 50 0 0.0 0.0 0.00 0.00 0.00 94 1019.3
20260902022455 50 0 0.0 0.0 0.00 0.00 0.00 94 1019.3
20260902021955 51 0 0.0 0.0 0.00 0.00 0.00 94 1019.3
20260902020955 51 0 0.0 0.0 0.00 0.00 0.00 94 1019.3
20260902015455 50 0 0.0 0.0 0.00 0.00 0.00 94 1019.5
20260902013955 50 0 0.0 0.0 0.00 0.00 0.00 94 1019.5
20260902013455 50 0 0.0 0.0 0.00 0.00 0.00 94 1019.4
20260902012455 50 0 0.0 0.0 0.00 0.00 0.00 94 1019.5
20260902011455 50 0 0.0 0.0 0.00 0.00 0.00 94 1019.5
20260902010955 51 0 0.0 0.0 0.00 0.00 0.00 94 1019.4
20260902010455 51 0 0.0 0.0 0.00 0.00 0.00 94 1019.3
20260902005957 51 0 0.0 0.0 0.00 0.00 0.00 94 1019.3
20260902005455 51 0 0.0 0.0 0.00 0.00 0.00 94 1019.3
20260902004455 51 0 0.0 0.0 0.00 0.00 0.00 94 1019.3
20260902003957 51 0 0.0 0.0 0.00 0.00 0.00 94 1019.3
20260902002955 51 0 0.0 0.0 0.00 0.00 0.00 94 1019.4
20260902002456 51 0 0.0 0.0 0.00 0.00 0.00 94 1019.4
20260902001955 51 0 0.0 0.0 0.00 0.00 0.00 94 1019.3
20260902000955 52 0 0.0 0.0 0.00 0.00 0.00 94 1019.3
20260902000455 52 0 0.0 0.0 0.00 0.00 0.00 93 1019.4
20260901235955 52 0 0.0 0.0 0.00 0.00 0.00 93 1019.4
20260901235455 52 0 0.0 0.0 0.00 0.00 0.00 93 1019.4
20260901234955 52 0 0.0 0.0 0.00 0.00 0.00 93 1019.4
20260901234455 52 0 0.0 0.0 0.00 0.00 0.00 93 1019.4
20260901233956 52 0 0.0 0.0 0.00 0.00 0.00 93 1019.3
20260901232956 52 0 0.0 0.0 0.00 0.00 0.00 94 1019.4
20260901232456 52 0 0.0 0.0 0.00 0.00 0.00 93 1019.3
20260901231955 52 0 0.0 0.0 0.00 0.00 0.00 93 1019.3
20260901231455 52 0 0.0 0.0 0.00 0.00 0.00 93 1019.3
20260901230955 52 0 0.0 0.0 0.00 0.00 0.00 93 1019.3
20260901225955 52 0 0.0 0.0 0.00 0.00 0.00 93 1019.2
20260901224457 53 0 0.0 0.0 0.00 0.00 0.00 93 1019.2
20260901223456 52 0 0.0 0.0 0.00 0.00 0.00 93 1019.3
20260901222957 52 0 0.0 0.0 0.00 0.00 0.00 93 1019.3
20260901222456 52 0 0.0 0.0 0.00 0.00 0.00 93 1019.3
20260901221956 52 0 0.0 0.0 0.00 0.00 0.00 93 1019.2
20260901220956 53 0 0.0 0.0 0.00 0.00 0.00 93 1019.2
20260901220456 53 0 0.0 0.0 0.00 0.00 0.00 93 1019.2
20260901215958 53 0 0.0 0.0 0.00 0.00 0.00 93 1019.1
20260901215456 53 0 0.0 0.0 0.00 0.00 0.00 93 1019.1
20260901214956 53 0 0.0 0.0 0.00 0.00 0.00 93 1019.1
20260901213956 53 0 0.0 0.0 0.00 0.00 0.00 92 1019.0
20260901213456 53 0 0.0 0.0 0.00 0.00 0.00 92 1019.1
20260901212958 54 0 0.0 0.0 0.00 0.00 0.00 92 1019.1
20260901212456 54 0 0.0 0.0 0.00 0.00 0.00 92 1019.1
20260901211956 54 0 0.0 0.0 0.00 0.00 0.00 92 1019.1
20260901211458 54 0 0.0 0.0 0.00 0.00 0.00 92 1019.2
20260901210956 54 0 0.0 0.0 0.00 0.00 0.00 92 1019.2
20260901210456 54 0 0.0 0.0 0.00 0.00 0.00 92 1019.2
20260901205956 54 0 0.0 0.0 0.00 0.00 0.00 92 1019.2
20260901205457 54 0 0.0 0.0 0.00 0.00 0.00 92 1019.3
20260901204956 54 0 0.0 0.0 0.00 0.00 0.00 92 1019.2
20260901204456 54 0 0.0 0.0 0.00 0.00 0.00 92 1019.2
20260901203957 54 0 0.0 0.0 0.00 0.00 0.00 92 1019.1
20260901203456 54 0 0.0 0.0 0.00 0.00 0.00 92 1019.2
20260901202956 54 0 0.0 0.0 0.00 0.00 0.00 91 1019.1
20260901202456 55 0 0.0 0.0 0.00 0.00 0.00 91 1019.1
20260901201957 55 0 0.0 0.0 0.00 0.00 0.00 91 1019.1
20260901201457 55 0 0.0 0.0 0.00 0.00 0.00 91 1019.1
20260901200956 55 0 0.0 0.0 0.00 0.00 0.00 91 1019.1
20260901195956 56 0 0.0 0.0 0.00 0.00 0.00 91 1019.0
20260901195456 56 0 0.0 0.0 0.00 0.00 0.00 90 1019.0
20260901194956 56 0 0.0 0.0 0.00 0.00 0.00 91 1019.0
20260901194456 56 0 0.0 0.0 0.00 0.00 0.00 90 1019.0
20260901193957 56 0 0.0 0.0 0.00 0.00 0.00 90 1019.0
20260901193456 56 0 0.0 0.0 0.00 0.00 0.00 90 1018.9
20260901192456 56 0 0.0 0.0 0.00 0.00 0.00 90 1018.9
20260901191956 56 0 0.0 0.0 0.00 0.00 0.00 89 1019.0
20260901191457 56 0 0.0 0.0 0.00 0.00 0.00 89 1019.0
20260901190957 56 0 0.0 0.0 0.00 0.00 0.00 89 1019.0
20260901190457 57 0 0.0 0.0 0.00 0.00 0.00 89 1019.0
20260901185956 57 0 0.0 0.0 0.00 0.00 0.00 88 1019.1
20260901185456 57 0 0.0 0.0 0.00 0.00 0.00 88 1019.1
20260901184956 57 0 0.0 0.0 0.00 0.00 0.00 88 1019.1
20260901184456 57 0 0.0 0.0 0.00 0.00 0.00 88 1019.1
20260901183956 57 0 0.0 0.0 0.00 0.00 0.00 87 1019.0
20260901183456 58 0 0.0 0.0 0.00 0.00 0.00 87 1019.0
20260901182956 58 0 0.0 0.0 0.00 0.00 0.00 87 1018.9
20260901182458 58 0 0.0 0.0 0.00 0.00 0.00 87 1018.9
20260901181956 58 0 0.0 0.0 0.00 0.00 0.00 87 1018.8
20260901181456 58 0 0.0 0.0 0.00 0.00 0.00 86 1018.8
20260901180956 59 0 0.0 0.0 0.00 0.00 0.00 86 1018.7
20260901180456 59 0 0.0 0.0 0.00 0.00 0.00 86 1018.6
20260901175457 59 0 0.0 0.0 0.00 0.00 0.00 85 1018.5
20260901174957 59 0 0.0 0.0 0.00 0.00 0.00 84 1018.4
20260901174457 60 0 0.0 0.0 0.00 0.00 0.00 83 1018.4
20260901173957 60 0 0.0 0.0 0.00 0.00 0.00 82 1018.4
20260901173457 61 0 0.0 0.0 0.00 0.00 0.00 82 1018.4
20260901172457 62 0 0.0 0.0 0.00 0.00 0.00 80 1018.3
20260901171957 62 0 0.0 0.0 0.00 0.00 0.00 79 1018.3
20260901171456 63 0 0.0 0.0 0.00 0.00 0.00 78 1018.2
20260901170958 63 0 0.0 0.0 0.00 0.00 0.00 78 1018.1
20260901170456 64 0 0.0 0.0 0.00 0.00 0.00 77 1018.1
20260901165957 64 0 0.0 0.0 0.00 0.00 0.00 77 1018.2
20260901165458 65 0 0.0 0.0 0.00 0.00 0.00 76 1018.1
20260901164957 65 0 0.0 0.0 0.00 0.00 0.00 75 1018.2
20260901164456 66 0 0.0 0.0 0.00 0.00 0.00 74 1018.2
20260901163959 66 0 0.0 0.0 0.00 0.00 0.00 74 1018.1
20260901163457 67 0 0.0 0.0 0.00 0.00 0.00 72 1018.2
20260901162957 67 0 0.0 0.0 0.00 0.00 0.00 72 1018.2
20260901161957 67 0 0.0 0.0 0.00 0.00 0.00 72 1018.2
20260901161456 67 0 0.0 0.0 0.00 0.00 0.00 73 1018.1
20260901160957 67 0 0.0 0.0 0.00 0.00 0.00 72 1018.1
20260901160457 68 0 0.0 0.0 0.00 0.00 0.00 72 1018.1
20260901155957 68 0 0.0 0.0 0.00 0.00 0.00 71 1018.1
20260901155458 69 0 0.0 0.0 0.00 0.00 0.00 70 1018.1
20260901154957 69 0 0.0 0.0 0.00 0.00 0.00 71 1018.1
20260901154457 69 0 0.0 0.0 0.00 0.00 0.00 71 1018.1
20260901153958 69 0 0.0 0.0 0.00 0.00 0.00 69 1018.1
20260901152957 69 0 0.0 0.0 0.00 0.00 0.00 69 1018.0
20260901152457 69 0 0.0 0.0 0.00 0.00 0.00 68 1018.0
20260901151957 69 0 0.0 0.0 0.00 0.00 0.00 69 1018.0
20260901151457 69 0 0.0 0.0 0.00 0.00 0.00 68 1018.0
20260901150959 70 0 0.0 0.0 0.00 0.00 0.00 69 1017.9
20260901150457 70 0 0.0 0.0 0.00 0.00 0.00 67 1017.9
20260901145957 69 0 0.0 0.0 0.00 0.00 0.00 70 1018.0
20260901145458 69 0 0.0 0.0 0.00 0.00 0.00 69 1018.0
20260901144957 69 0 0.0 0.0 0.00 0.00 0.00 69 1018.0
20260901143458 69 0 0.0 0.0 0.00 0.00 0.00 70 1018.0
20260901142458 69 0 0.0 0.0 0.00 0.00 0.00 69 1017.9
20260901141459 69 0 0.0 0.0 0.00 0.00 0.00 68 1017.9
20260901140957 69 0 0.0 0.0 0.00 0.00 0.00 67 1018.0